Regional Weather Roundup
Issued by NWS Wakefield, VA

Home | Current Version | Previous Version | Graphics & Text | Print | Product List | Glossary On
Versions: 1 2 3 4 5 6 7 8 9 10 11 12 13 14 15 16 17 18 19 20 21 22 23 24 25 26 27 28 29 30 31 32 33 34 35 36 37 38 39 40 41 42 43 44 45 46 47
000
ASUS41 KAKQ 301914
RWRAKQ

REGIONAL WEATHER ROUNDUP
NATIONAL WEATHER SERVICE WAKEFIELD VA
300 PM EDT MON MAR 30 2015

Note: "fair" indicates few or no clouds below 12,000 feet with no
significant weather and/or obstructions to visibility. * = Denotes
station may not report precipitation (e.g., rain,snow,etc.),
thunder or fog.

VAZ042-051-052>054-056-302000-
NORTHERN VIRGINIA

CITY           SKY/WX    TMP DP  RH WIND       PRES   REMARKS
WASH NATIONAL  MOSUNNY   64  28  25 NW16G25   29.86F
DULLES         MOSUNNY   59  25  27 NW21G28   29.87S
FORT BELVOIR   MOSUNNY   61  28  29 W12G23    29.85F
QUANTICO       PTSUNNY   61  29  29 NW14G28   29.87F
FREDERICKSBRG* PTSUNNY   62  32  32 W15G25    29.86F
STAFFORD*      PTSUNNY   60  30  32 NW10      29.90F
WARRENTON      SUNNY     65  34  31 W9G20     29.86F
CULPEPER*      SUNNY     64  23  20 NW10G18   29.87S
MANASSAS*      NOT AVBL
LEESBURG*      SUNNY     61  32  33 NW18G31   29.87F
WINCHESTER     SUNNY     61  12  15 W22G30    29.87F
FRONT ROYAL*   FAIR      59  27  29 NW20G25   29.86F
LURAY*         FAIR      61  28  29 W16G26    29.88F
$$

VAZ048-049-060>072-079>083-302000-
CENTRAL AND SOUTH CENTRAL VIRGINIA

CITY           SKY/WX    TMP DP  RH WIND       PRES   REMARKS
RICHMOND       PTSUNNY   65  34  31 W16G22    29.88F
CHESTERFIELD*  NOT AVBL
PETERSBURG*    CLOUDY    64  32  30 W13G25    29.90F
HANOVER        PTSUNNY   64  36  35 W15G21    29.89F
TAPPAHANNOCK*  CLOUDY    61  26  25 W14G21    29.88F
QUINTON*       MOCLDY    61  36  39 W12G18    29.88F
CHARLOTTSVILLE SUNNY     62  23  22 NW13G29   29.88F
GORDONSVILLE*  FAIR      61  25  25 W13G22    29.88S
ORANGE*        SUNNY     63  28  27 W13G23    29.89S
LOUISA*        PTSUNNY   66  32  28 NW9       29.86F
BUMPASS*       FAIR      60  33  36 W8        29.87F
FARMVILLE*     CLOUDY    64  34  32 W12       29.89F
CREWE*         MOCLDY    62  35  36 MISG      29.90F
FORT PICKETT*  MOCLDY    61  35  37 W16G26    29.91F
CHASE CITY*    CLOUDY    64  40  41 W10G18    29.92F
CLARKSVILLE*   CLOUDY    61  36  39 W10G22    29.93F
SOUTH HILL*    PTSUNNY   58  40  51 SW10      29.99F
LAWRENCEVILLE* FAIR      61  41  47 W9        29.91F
EMPORIA*       SUNNY     55  43  62 S6        29.95F
$$

VAZ088>098-302000-
SOUTHEAST VIRGINIA

CITY           SKY/WX    TMP DP  RH WIND       PRES   REMARKS
NORFOLK        PTSUNNY   54  44  69 SW16      29.92F
VIRGINIA BEACH PTSUNNY   54  44  69 SW21G26   29.91F
NORFOLK NAVAL  PTSUNNY   57  44  62 W12       29.93F
WEST POINT*    SUNNY     65  33  30 W10       29.90F
SALUDA*        FAIR      60  39  45 W6        29.88F
NEWPORT NEWS   NOT AVBL
LANGLEY AFB    PTSUNNY   54  44  69 SW18G25   29.90F
FORT EUSTIS    MOSUNNY   56  44  65 W8        29.89F
WILLIAMSBURG*  MOSUNNY   63  45  51 W8        29.91F
HR EXEC AP*    FAIR      54  45  71 SW15      29.94F
FRANKLIN*      MOSUNNY   52  44  75 SW10G18   29.95F
WAKEFIELD      MOSUNNY   58  44  60 SW10      29.92F
$$

VAZ020-022-025-037-045-302000-
WEST CENTRAL AND SOUTHWEST VIRGINIA

CITY           SKY/WX    TMP DP  RH WIND       PRES   REMARKS
STAUNTON*      SUNNY     60  23  23 W13G22    29.92S
WAYNESBORO*    FAIR      57  25  29 W10G23    29.91S
HOT SPRINGS VA MOSUNNY   46  18  32 NW24G35   29.91S
LYNCHBURG      SUNNY     61  28  28 W14G22    29.93F
DANVILLE       PTSUNNY   67  36  31 W15G28    29.93F
SOUTH BOSTON*  FAIR      64  32  30 W15G23    29.93F
MARTINSVILLE   PTSUNNY   65  32  28 NW15G21   29.99F
ROANOKE        MOSUNNY   60  26  27 NW18G30   29.98S
BLACKSBURG     MOSUNNY   53  27  36 W17G26    30.02S
DUBLIN*        MOSUNNY   56  31  39 W14G23    30.01F
MARION*        MOSUNNY   53  29  39 W18G28    30.04F
HILLSVILLE*    MOSUNNY   52  31  44 NW22G29   30.00S
RICHLANDS*     FAIR      52  23  32 W13       30.05F
WISE*          MOSUNNY   54  27  35 NW13G18   30.09S
ABINGDON*      SUNNY     58  27  31 NW10G21   30.05F
$$

MDZ021>025-VAZ099-100-302000-
SOUTHERN MARYLAND AND THE DELMARVA PENINSULA

CITY           SKY/WX    TMP DP  RH WIND       PRES   REMARKS
PATUXENT RIVER PTSUNNY   60  31  33 W13G30    29.86F
BAY BRIDGE APT   N/A     55  32  41 W9        29.86F
LEONARDTOWN    PTSUNNY   59  32  36 W15G21    29.87F
DOVER          MOSUNNY   58  31  36 W21       29.80F
GEORGETOWN     PTSUNNY   56  33  42 NW14G21   29.86F
EASTON         MOSUNNY   59  34  38 W9        29.90F
CAMBRIDGE      MOSUNNY   59  32  36 W13G20    29.85F
SALISBURY      CLOUDY    55  36  48 W12       29.87F
OCEAN CITY     CLOUDY    55  38  52 NW9G18    29.87F
WALLOPS ISLAND CLOUDY    53  38  56 W13G18    29.89F
ACCOMACK*      CLOUDY    54  37  54 W15       29.89F
$$

NCZ012>017-030>032-302000-
NORTH CENTRAL AND EASTERN NORTH CAROLINA

CITY           SKY/WX    TMP DP  RH WIND       PRES   REMARKS
ROANOKE RAPIDS FAIR      54  45  71 SW12      29.95F
RALEIGH        MOSUNNY   60  47  61 SW9       29.98F
ELIZABETH CITY CLOUDY    48  45  89 SW17G23   29.97F
AHOSKIE*       MOSUNNY   52  45  77 SW3       29.96F
EDENTON*       CLOUDY    47  44  88 SW13G20   29.98F
CURRITUCK*     CLOUDY    47  43  84 SW13G21   29.96F
KILL DEVIL HLS DRIZZLE   46  44  93 SW8G21    29.97F
MANTEO         CLOUDY    47  45  93 SW16G22   30.00F
CAPE HATTERAS  CLOUDY    50  45  83 W13G25    30.02F
TARBORO*       CLOUDY    53  46  77 SW8G16    29.99F
GOLDSBORO      MOSUNNY   55  46  71 W15       29.97F
WASHINGTON     CLOUDY    48  45  88 SW10      30.00F
GREENVILLE     CLOUDY    50  46  87 W7        30.01F
NEW BERN       CLOUDY    53  46  77 SW8       30.03F
WILMINGTON     CLOUDY    64  44  48 W20       30.02F
$$

VAZ048-302000-
ELSEWHERE

CITY           SKY/WX    TMP DP  RH WIND       PRES   REMARKS
HARRISBURG PA  PTSUNNY   54  27  35 NW17      29.84S
BALTIMORE      MOSUNNY   61  27  27 W17G30    29.83F
ANNAPOLIS      PTSUNNY   57  27  31 W13G22    29.85F
ANDREWS AFB    MOSUNNY   60  31  33 W13G21    29.84F
PHILADELPHIA   PTSUNNY   57  28  33 W21G29    29.83F
HENDERSON NC   MOSUNNY   62  38  41 W10G18    29.94F
GREENSBORO     MOSUNNY   65  35  33 NW18G28   29.95F
ROCKY MOUNT    MOSUNNY   55  46  71 SW12      29.98F
$$

VAZ100-302000-
MARINE

STATION/POSITION TIME  TEMP    WIND        PRES    WAVE   SWELL
                       AIR SEA DIR/SP/G            HT/PER HT/PER
                 (UTC) (F)     (DEG/KT/KT) (MB)    (FT/S) (FT/S)
BRANDYWINE LGT   1800   48 40  250/ 16/ 18 1011.3F
CAPE MAY NJ      1800   45 43  250/ 10/ 11 1011.0F
LEWES DE         1800   53 40  270/ 13/ 16 1011.2F
15NM E FENWICK I 1850   41 40              1011.0F   6/ 8
OCEAN-CITY-INLET 1800   50 41  270/ 10/ 13 1011.3F
WACHAPREAGUE VA  1800   49 43  240/ 10/ 15 1012.4F
THOMAS POINT MD  1900                        N/A
COVE POINT MD    1800   55     300/  7/  9 1011.5F
SOLOMONS ISLAND  1800      43                N/A
BISHOPS HEAD MD  1800   46 43  240/ 10/ 11 1011.4F
PINEY POINT MD   1800          270/  7/  8   N/A
CAMBRIDGE MD     1800   56 42  260/ 10/ 14 1011.4F
LEWISETTA VA     1800   56 43              1011.5F
RAPPAHANNOCK LGT 1800          210/ 13/ 15 1013.1F
STINGRAY PT      1900   51 45  250/  6/  8   N/A     1/ 3
YORK RVR RNG VA  1800   48     230/ 14/ 16 1012.3F
YORKTOWN VA      1800   50 45  230/ 12/ 19 1012.5F
DOMINION TERM VA 1800   47     240/ 16/ 20 1013.6F
KIPTOPEKE VA     1800      47  240/ 17/ 20   N/A
CHES BAY BRIDGE  1800   46 44  210/ 22/ 25 1012.9F
CAPE HENRY VA    1800   47     220/ 12/ 19 1012.5F
CHESAPEAKE LGHT  1800   44     220/ 22/ 24 1014.0F
WILLOUBY STN VA  1800   47     230/ 16/ 17 1014.2F
S CRANEY ISL VA  1800          220/ 13/ 20 1013.6F
CAPE HENRY BUOY  1828      40                N/A     3/ 4
1ST LANDING BUOY 1900   47     240/ 14/ 16 1012.7F   2/ 3
OFFSHORE WE BUOY 1811      41                N/A     4/ 5   2/11
64NM E OF VA BCH 1850   47 49  230/ 23/ 29 1013.4F   5/ 5   2/11
DUCK PIER NC     1800   46 42  240/ 21/ 27 1015.0F
44056 DUCK FRF   1811      42                N/A     2/10   2/11
OREGON INLET NC  1800   47 44  240/ 16/ 22 1016.6F
HATTERAS NC      1800   53 55  250/ 12/ 20 1017.3F
CAPE LOOKOUT NC  1900   56     240/ 11/ 15 1016.4F
$$


USA.gov is the U.S. government's official web portal to all federal, state and local government web resources and services.